Regional Weather Roundup
Issued by NWS

Home | Current Version | Previous Version | Text Only | Print | Product List | Glossary Off
Versions: 1 2 3 4 5 6 7 8 9 10 11 12 13 14 15 16 17 18 19 20 21 22 23 24 25 26 27 28 29 30 31 32 33 34 35 36 37 38 39 40 41 42 43 44 45 46 47 48 49 50

425
ASUS43 KIND 270559
RWRIN

WEATHER ROUNDUP FOR INDIANA
NATIONAL WEATHER SERVICE INDIANAPOLIS IN
200 AM EDT FRI MAY 27 2016

NOTE: "FAIR" INDICATES FEW OR NO CLOUDS BELOW 12,000 FEET WITH NO
SIGNIFICANT WEATHER AND/OR OBSTRUCTIONS TO VISIBILITY.

* - STATION DOES NOT REPORT WEATHER SUCH AS PRECIPITATION OR FOG.

+ - STATION NOT QUALITY CONTROLLED BY THE NATIONAL WEATHER SERVICE.
    USE DATA WITH CAUTION...ESPECIALLY DEWPOINT AND RELATIVE
    HUMIDITY OBSERVATIONS.

INZ001>003-010>013-019-020-270700-
NORTHWEST INDIANA

CITY           SKY/WX    TMP DP  RH WIND       PRES   REMARKS
RENSSELAER +   CLOUDY    68  64  88 S10       29.93S

$$

LMZ046-743>745-270700-
SOUTHERN LAKE MICHIGAN

STATION/POSITION TIME  TEMP    WIND        PRES    WAVE
                       AIR SEA DIR/SP/G            HT
                 (UTC) (F)     (DEG/KT/KT) (MB)    (FT)
BURNS HARBOR     0500   72     190/ 17/ 20 1012.9F
MICHIGAN CITY    0500   72     170/ 12/ 16   N/A
5NW MICH CITY    0500   67 59  200/ 10/ 12   N/A     1

$$

INZ004-005-014>016-021>024-270700-
NORTH CENTRAL INDIANA

CITY           SKY/WX    TMP DP  RH WIND       PRES   REMARKS
GOSHEN         CLOUDY    67  61  81 S7        29.94F
6HR MIN TEMP:  67; 6HR MAX TEMP:  79;

SOUTH BEND     CLEAR     69  63  81 SW9       29.93S
6HR MIN TEMP:  69; 6HR MAX TEMP:  80;


$$

INZ006>009-017-018-025>027-270700-
NORTHEAST INDIANA

CITY           SKY/WX    TMP DP  RH WIND       PRES   REMARKS
ANGOLA *+        N/A     66  59  77 S3        29.95F
FORT WAYNE     CLOUDY    65  61  87 S7        29.96F
6HR MIN TEMP:  65; 6HR MAX TEMP:  79;


$$

INZ028-029-035-036-043>045-051>053-270700-
WEST CENTRAL INDIANA

CITY           SKY/WX    TMP DP  RH WIND       PRES   REMARKS
CRAWFORDSVL +  CLOUDY    63  63 100 S8        29.97S
6HR MIN TEMP:  62; 6HR MAX TEMP:  72;

GREENCASTLE +  CLOUDY    63  63 100 CALM      29.98F
LAFAYETTE      CLOUDY    65  62  90 S5        29.95S
6HR MIN TEMP:  65; 6HR MAX TEMP:  75;

TERRE HAUTE    MOCLDY    66  63  90 S3        29.97S
6HR MIN TEMP:  65; 6HR MAX TEMP:  73;


$$

INZ030>032-037>040-046>048-054>057-064-065-270700-
CENTRAL INDIANA

CITY           SKY/WX    TMP DP  RH WIND       PRES   REMARKS
INDIANAPOLIS   CLOUDY    65  61  87 SW6       29.96
6HR MIN TEMP:  65; 6HR MAX TEMP:  73;

-EAGLE CREEK   CLOUDY    66  61  84 SW3       29.97F
6HR MIN TEMP:  66; 6HR MAX TEMP:  75;

KOKOMO *+      MOCLDY    66  59  77 SW9       29.96S
6HR MIN TEMP:  64; 6HR MAX TEMP:  77;

SHELBYVILLE    CLOUDY    67  63  87 S8        29.98F
6HR MIN TEMP:  64; 6HR MAX TEMP:  74;


$$

INZ033-034-041-042-049-050-058-059-270700-
EAST CENTRAL INDIANA

CITY           SKY/WX    TMP DP  RH WIND       PRES   REMARKS
MUNCIE         CLOUDY    68  62  81 SW8       29.98F
6HR MIN TEMP:  68; 6HR MAX TEMP:  78;


$$

INZ060-061-067>069-081>083-085>088-270700-
SOUTHWEST INDIANA

CITY           SKY/WX    TMP DP  RH WIND       PRES   REMARKS
EVANSVILLE     CLOUDY    66  62  87 CALM      29.98F
6HR MIN TEMP:  63; 6HR MAX TEMP:  70;

HUNTINGBURG *+ CLOUDY    66  63  88 S7        29.99S
6HR MIN TEMP:  64; 6HR MAX TEMP:  70;


$$

INZ062-063-066-070>080-084-089>092-270700-
SOUTH CENTRAL AND SOUTHEAST INDIANA

CITY           SKY/WX    TMP DP  RH WIND       PRES   REMARKS
BLOOMINGTON    PTCLDY    65  61  87 SE6       29.98F
6HR MIN TEMP:  65; 6HR MAX TEMP:  72;

MADISON *+     PTCLDY    63  61  94 CALM      30.04S
SEYMOUR +      PTCLDY    66  64  94 CALM      30.00F

$$





USA.gov is the U.S. government's official web portal to all federal, state and local government web resources and services.